KG7KID-6 Weather Reports


Display with metric or nautical units.
time (UTC)temp
F
wind
direction
speed
MPH
gust
MPH
rain 1hr
in
rain 24hr
in
rain mn
in
humidity
%
barometer
mb
20190922211455 89 0 0.0 9.0 0.00 0.00 0.00 10 932.2
20190922210956 89 183 5.0 11.0 0.00 0.00 0.00 10 932.2
20190922210455 90 172 6.0 11.0 0.00 0.00 0.00 10 932.1
20190922205455 89 192 1.0 9.0 0.00 0.00 0.00 10 932.3
20190922204955 89 217 4.0 9.0 0.00 0.00 0.00 10 932.4
20190922204455 88 0 0.0 9.0 0.00 0.00 0.00 10 932.5
20190922203955 88 204 2.0 9.0 0.00 0.00 0.00 11 932.6
20190922203456 88 0 0.0 8.0 0.00 0.00 0.00 11 932.6
20190922202455 88 173 1.0 8.0 0.00 0.00 0.00 10 932.9
20190922201956 88 156 4.0 8.0 0.00 0.00 0.00 10 932.9
20190922201455 88 150 3.0 8.0 0.00 0.00 0.00 11 933.0
20190922200955 88 150 3.0 8.0 0.00 0.00 0.00 10 933.0
20190922200455 87 144 1.0 5.0 0.00 0.00 0.00 10 933.2
20190922200000 87 297 1.0 7.0 0.00 0.00 0.00 11 933.2
20190922195455 87 274 3.0 7.0 0.00 0.00 0.00 10 933.4
20190922194955 87 173 2.0 6.0 0.00 0.00 0.00 11 933.5
20190922194455 87 68 1.0 6.0 0.00 0.00 0.00 11 933.6
20190922193959 87 85 1.0 8.0 0.00 0.00 0.00 11 933.7
20190922193455 87 50 2.0 8.0 0.00 0.00 0.00 11 933.8
20190922192954 86 0 0.0 4.0 0.00 0.00 0.00 11 933.9
20190922192454 85 114 1.0 8.0 0.00 0.00 0.00 12 934.0
20190922191454 85 163 2.0 8.0 0.00 0.00 0.00 13 934.1
20190922185955 84 159 2.0 7.0 0.00 0.00 0.00 13 934.4
20190922184844 83 0 0.0 8.0 0.00 0.00 0.00 14 934.6
20190922184345 82 0 0.0 8.0 0.00 0.00 0.00 14 934.7
20190922183345 81 168 2.0 6.0 0.00 0.00 0.00 14 934.8
20190922182345 80 171 1.0 7.0 0.00 0.00 0.00 15 934.8
20190922181844 80 169 2.0 7.0 0.00 0.00 0.00 15 934.9
20190922181345 80 172 1.0 5.0 0.00 0.00 0.00 14 935.0
20190922180844 79 0 0.0 2.0 0.00 0.00 0.00 15 935.0
20190922180344 78 0 0.0 5.0 0.00 0.00 0.00 16 935.1
20190922175845 78 0 0.0 6.0 0.00 0.00 0.00 16 935.1
20190922175345 77 174 1.0 6.0 0.00 0.00 0.00 16 935.3
20190922174844 77 181 1.0 4.0 0.00 0.00 0.00 16 935.3
20190922173636 76 183 1.0 5.0 0.00 0.00 0.00 16 935.5
20190922173135 76 183 1.0 5.0 0.00 0.00 0.00 16 935.6
20190922172636 76 0 0.0 3.0 0.00 0.00 0.00 16 935.6
20190922172138 75 0 0.0 3.0 0.00 0.00 0.00 17 935.7
20190922171638 74 0 0.0 3.0 0.00 0.00 0.00 17 935.8
20190922171135 74 0 0.0 4.0 0.00 0.00 0.00 17 935.8
20190922170636 73 0 0.0 4.0 0.00 0.00 0.00 18 935.9
20190922170136 73 153 1.0 4.0 0.00 0.00 0.00 18 935.9
20190922165136 72 154 1.0 6.0 0.00 0.00 0.00 20 936.0
20190922164636 71 154 1.0 4.0 0.00 0.00 0.00 20 936.1
20190922164138 71 0 0.0 4.0 0.00 0.00 0.00 21 936.2
20190922163636 70 152 2.0 5.0 0.00 0.00 0.00 21 936.1
20190922163135 70 151 1.0 5.0 0.00 0.00 0.00 21 936.2
20190922162636 70 0 0.0 4.0 0.00 0.00 0.00 21 936.1
20190922162135 69 0 0.0 3.0 0.00 0.00 0.00 21 936.1
20190922161636 69 0 0.0 3.0 0.00 0.00 0.00 22 936.2
20190922161138 68 0 0.0 3.0 0.00 0.00 0.00 22 936.1
20190922160636 67 0 0.0 2.0 0.00 0.00 0.00 24 936.2
20190922160136 67 0 0.0 2.0 0.00 0.00 0.00 23 936.2
20190922155636 67 0 0.0 2.0 0.00 0.00 0.00 24 936.2
20190922154636 65 0 0.0 2.0 0.00 0.00 0.00 26 936.1
20190922154101 64 0 0.0 4.0 0.00 0.00 0.00 27 936.1
20190922153559 64 48 1.0 4.0 0.00 0.00 0.00 27 936.2
20190922153100 63 45 1.0 3.0 0.00 0.00 0.00 28 936.2
20190922152559 63 0 0.0 2.0 0.00 0.00 0.00 28 936.3
20190922152102 62 0 0.0 2.0 0.00 0.00 0.00 28 936.3
20190922151209 61 0 0.0 2.0 0.00 0.00 0.00 29 936.4
20190922150708 60 0 0.0 2.0 0.00 0.00 0.00 30 936.5
20190922150208 59 0 0.0 2.0 0.00 0.00 0.00 29 936.5
20190922145709 58 0 0.0 2.0 0.00 0.00 0.00 30 936.5
20190922145209 57 0 0.0 3.0 0.00 0.00 0.00 31 936.5
20190922144709 57 42 1.0 3.0 0.00 0.00 0.00 33 936.4
20190922144209 56 0 0.0 2.0 0.00 0.00 0.00 33 936.4
20190922143709 55 0 0.0 2.0 0.00 0.00 0.00 35 936.4
20190922143209 55 0 0.0 2.0 0.00 0.00 0.00 32 936.4
20190922142709 54 0 0.0 2.0 0.00 0.00 0.00 33 936.4
20190922142208 53 41 1.0 2.0 0.00 0.00 0.00 34 936.5
20190922141708 52 0 0.0 4.0 0.00 0.00 0.00 35 936.3
20190922141209 51 41 1.0 4.0 0.00 0.00 0.00 36 936.3
20190922140528 50 42 1.0 3.0 0.00 0.00 0.00 36 936.2
20190922140030 49 42 1.0 3.0 0.00 0.00 0.00 37 936.2
20190922135529 49 0 0.0 3.0 0.00 0.00 0.00 37 936.1
20190922135028 48 0 0.0 3.0 0.00 0.00 0.00 38 936.2
20190922134529 48 0 0.0 0.0 0.00 0.00 0.00 38 936.1
20190922134029 48 0 0.0 0.0 0.00 0.00 0.00 38 935.9
20190922133530 48 0 0.0 0.0 0.00 0.00 0.00 38 935.9
20190922133028 47 0 0.0 0.0 0.00 0.00 0.00 39 935.8
20190922132602 47 0 0.0 2.0 0.00 0.00 0.00 39 935.8
20190922132528 47 0 0.0 2.0 0.00 0.00 0.00 39 935.8
20190922132028 47 0 0.0 3.0 0.00 0.00 0.00 39 935.8
20190922131528 47 0 0.0 5.0 0.00 0.00 0.00 40 935.7
20190922131029 47 43 2.0 5.0 0.00 0.00 0.00 40 935.7
20190922130529 46 46 2.0 5.0 0.00 0.00 0.00 39 935.6
20190922125956 46 49 2.0 5.0 0.00 0.00 0.00 40 935.6
20190922125455 46 51 2.0 3.0 0.00 0.00 0.00 40 935.5
20190922124955 47 52 1.0 3.0 0.00 0.00 0.00 39 935.6
20190922124456 47 0 0.0 4.0 0.00 0.00 0.00 39 935.5
20190922122802 48 58 2.0 4.0 0.00 0.00 0.00 38 935.3
20190922122300 48 69 2.0 4.0 0.00 0.00 0.00 38 935.2
20190922121801 48 0 0.0 2.0 0.00 0.00 0.00 39 935.2
20190922120759 48 0 0.0 3.0 0.00 0.00 0.00 38 935.1
20190922120259 48 0 0.0 3.0 0.00 0.00 0.00 38 935.0
20190922115759 49 75 1.0 3.0 0.00 0.00 0.00 37 934.9
20190922114758 49 0 0.0 4.0 0.00 0.00 0.00 37 934.8
20190922114303 49 77 1.0 4.0 0.00 0.00 0.00 37 934.8
20190922113759 49 0 0.0 4.0 0.00 0.00 0.00 37 934.8
20190922112759 49 0 0.0 3.0 0.00 0.00 0.00 38 934.6
20190922111759 49 0 0.0 1.0 0.00 0.00 0.00 36 934.4
20190922111258 49 0 0.0 2.0 0.00 0.00 0.00 36 934.4
20190922110803 49 0 0.0 3.0 0.00 0.00 0.00 36 934.5
20190922110259 49 0 0.0 3.0 0.00 0.00 0.00 37 934.5
20190922105759 49 0 0.0 3.0 0.00 0.00 0.00 37 934.4
20190922105259 49 0 0.0 2.0 0.00 0.00 0.00 36 934.5
20190922104758 50 0 0.0 3.0 0.00 0.00 0.00 36 934.4
20190922104259 50 80 1.0 3.0 0.00 0.00 0.00 36 934.4
20190922103259 51 0 0.0 2.0 0.00 0.00 0.00 34 934.2
20190922102759 51 0 0.0 2.0 0.00 0.00 0.00 34 934.1
20190922102300 51 0 0.0 2.0 0.00 0.00 0.00 34 934.0
20190922101758 51 0 0.0 1.0 0.00 0.00 0.00 34 934.0
20190922101259 51 0 0.0 2.0 0.00 0.00 0.00 34 934.0
20190922100759 51 81 1.0 2.0 0.00 0.00 0.00 34 934.1
20190922100259 52 0 0.0 1.0 0.00 0.00 0.00 33 934.1
20190922095800 53 0 0.0 0.0 0.00 0.00 0.00 33 934.0
20190922095215 53 0 0.0 4.0 0.00 0.00 0.00 33 934.1
20190922094715 53 67 2.0 4.0 0.00 0.00 0.00 33 934.0
20190922094214 52 0 0.0 1.0 0.00 0.00 0.00 33 934.0
20190922093714 52 0 0.0 1.0 0.00 0.00 0.00 33 933.9
20190922093214 53 0 0.0 0.0 0.00 0.00 0.00 32 934.0
20190922092717 54 0 0.0 2.0 0.00 0.00 0.00 31 934.2
20190922092215 54 0 0.0 3.0 0.00 0.00 0.00 32 934.2
20190922091717 54 18 2.0 3.0 0.00 0.00 0.00 31 934.1
20190922085215 55 0 0.0 1.0 0.00 0.00 0.00 30 934.1
20190922084714 55 0 0.0 1.0 0.00 0.00 0.00 30 934.1
20190922084214 55 0 0.0 3.0 0.00 0.00 0.00 30 934.2
20190922083714 55 0 0.0 3.0 0.00 0.00 0.00 29 934.1
20190922083214 55 18 1.0 3.0 0.00 0.00 0.00 30 934.2
20190922082214 55 0 0.0 3.0 0.00 0.00 0.00 29 934.2
20190922081214 55 18 1.0 3.0 0.00 0.00 0.00 29 934.2
20190922080714 55 0 0.0 2.0 0.00 0.00 0.00 29 934.2
20190922080215 56 0 0.0 2.0 0.00 0.00 0.00 28 934.1
20190922075214 56 18 1.0 3.0 0.00 0.00 0.00 28 934.0
20190922074715 56 0 0.0 3.0 0.00 0.00 0.00 28 934.0
20190922074214 56 0 0.0 3.0 0.00 0.00 0.00 28 934.0
20190922073715 57 18 1.0 4.0 0.00 0.00 0.00 28 934.0
20190922073214 57 18 1.0 4.0 0.00 0.00 0.00 28 933.9
20190922072716 57 18 2.0 4.0 0.00 0.00 0.00 28 933.9
20190922072214 57 0 0.0 3.0 0.00 0.00 0.00 26 933.9
20190922071714 58 18 1.0 3.0 0.00 0.00 0.00 26 933.8
20190922071214 59 0 0.0 3.0 0.00 0.00 0.00 25 933.7
20190922070714 59 0 0.0 3.0 0.00 0.00 0.00 25 933.8
20190922070214 59 18 2.0 3.0 0.00 0.00 0.00 25 933.8
20190922065714 58 0 0.0 4.0 0.00 0.00 0.00 26 933.8
20190922065214 58 18 1.0 7.0 0.00 0.00 0.00 26 933.8
20190922064714 58 18 2.0 8.0 0.00 0.00 0.00 26 933.7
20190922064214 58 18 4.0 10.0 0.00 0.00 0.00 26 933.7
20190922063715 59 17 5.0 10.0 0.00 0.00 0.00 25 933.6
20190922063214 59 17 4.0 8.0 0.00 0.00 0.00 25 933.5
20190922062715 59 21 4.0 8.0 0.00 0.00 0.00 25 933.5
20190922062214 59 23 5.0 8.0 0.00 0.00 0.00 25 933.5
20190922061714 60 18 4.0 8.0 0.00 0.00 0.00 25 933.5
20190922061014 60 19 5.0 9.0 0.00 0.00 0.00 24 933.5
20190922060514 60 22 4.0 9.0 0.00 0.00 0.00 24 933.5
20190922060015 61 22 6.0 9.0 0.00 0.00 0.00 24 933.5
20190922055513 61 18 3.0 7.0 0.00 0.00 0.00 23 933.4
20190922055013 61 15 3.0 7.0 0.00 0.00 0.00 23 933.3
20190922054514 61 16 4.0 7.0 0.00 0.00 0.00 23 933.4
20190922054015 61 16 3.0 7.0 0.00 0.00 0.00 23 933.4
20190922053515 62 15 4.0 7.0 0.00 0.00 0.00 23 933.3
20190922053015 62 16 3.0 7.0 0.00 0.00 0.00 23 933.2
20190922052514 63 16 3.0 5.0 0.00 0.00 0.00 23 933.1
20190922052014 63 17 2.0 4.0 0.00 0.00 0.00 23 933.1
20190922051215 64 17 3.0 7.0 0.00 0.00 0.00 22 932.9
20190922045701 63 17 2.0 4.0 0.00 0.00 0.00 22 932.9
20190922045201 64 17 2.0 7.0 0.00 0.00 0.00 22 932.8
20190922044701 65 17 3.0 8.0 0.00 0.00 0.00 21 932.8
20190922044201 66 18 4.0 8.0 0.00 0.00 0.00 21 932.7
20190922043701 66 0 0.0 2.0 0.00 0.00 0.00 20 932.7
20190922043201 66 0 0.0 3.0 0.00 0.00 0.00 20 932.6
20190922042701 67 0 0.0 3.0 0.00 0.00 0.00 20 932.5
20190922042201 68 0 0.0 5.0 0.00 0.00 0.00 19 932.5
20190922041701 68 16 1.0 7.0 0.00 0.00 0.00 19 932.5
20190922041200 69 16 2.0 8.0 0.00 0.00 0.00 18 932.4
20190922040201 72 0 0.0 3.0 0.00 0.00 0.00 17 932.2
20190922035701 73 0 0.0 3.0 0.00 0.00 0.00 16 932.0
20190922035202 73 204 1.0 3.0 0.00 0.00 0.00 16 932.0
20190922034702 74 0 0.0 2.0 0.00 0.00 0.00 16 931.9
20190922034202 74 0 0.0 0.0 0.00 0.00 0.00 16 931.8
20190922033701 74 0 0.0 3.0 0.00 0.00 0.00 16 931.8
20190922033201 74 0 0.0 5.0 0.00 0.00 0.00 16 931.7
20190922032700 75 126 1.0 5.0 0.00 0.00 0.00 15 931.6
20190922032201 75 0 0.0 1.0 0.00 0.00 0.00 15 931.5
20190922031700 76 0 0.0 4.0 0.00 0.00 0.00 14 931.4
20190922031201 76 128 1.0 4.0 0.00 0.00 0.00 14 931.3
20190922030200 78 203 1.0 12.0 0.00 0.00 0.00 14 931.1
20190922025701 78 178 2.0 14.0 0.00 0.00 0.00 13 931.0
20190922025200 78 210 6.0 14.0 0.00 0.00 0.00 13 930.9
20190922024059 77 216 6.0 12.0 0.00 0.00 0.00 14 930.9
20190922023600 78 145 6.0 14.0 0.00 0.00 0.00 13 930.7
20190922023100 77 170 3.0 14.0 0.00 0.00 0.00 14 930.7
20190922022600 76 133 3.0 11.0 0.00 0.00 0.00 14 930.6
20190922022100 75 0 0.0 2.0 0.00 0.00 0.00 15 930.6
20190922021559 76 0 0.0 4.0 0.00 0.00 0.00 15 930.5
20190922021100 76 0 0.0 7.0 0.00 0.00 0.00 15 930.4
20190922020632 75 260 2.0 7.0 0.00 0.00 0.00 15 930.2
20190922020601 75 260 2.0 7.0 0.00 0.00 0.00 15 930.2
20190922020100 75 0 0.0 4.0 0.00 0.00 0.00 15 930.3
20190922015102 77 0 0.0 1.0 0.00 0.00 0.00 14 930.2
20190922014603 78 0 0.0 6.0 0.00 0.00 0.00 14 930.1
20190922014101 78 0 0.0 6.0 0.00 0.00 0.00 14 930.0
20190922013559 78 178 1.0 5.0 0.00 0.00 0.00 14 930.0
20190922013100 78 0 0.0 5.0 0.00 0.00 0.00 14 930.0
20190922012523 79 171 1.0 5.0 0.00 0.00 0.00 14 929.9
20190922012023 79 0 0.0 7.0 0.00 0.00 0.00 14 929.9
20190922011523 80 179 2.0 12.0 0.00 0.00 0.00 14 929.8
20190922011028 80 168 3.0 12.0 0.00 0.00 0.00 13 929.7
20190922010523 81 169 4.0 9.0 0.00 0.00 0.00 13 929.7
20190922010023 81 167 5.0 12.0 0.00 0.00 0.00 13 929.5
20190922005023 82 163 4.0 11.0 0.00 0.00 0.00 12 929.4
20190922004024 83 167 3.0 8.0 0.00 0.00 0.00 12 929.4
20190922003523 84 177 5.0 10.0 0.00 0.00 0.00 11 929.4
20190922003023 84 196 6.0 10.0 0.00 0.00 0.00 11 929.3
20190922002523 84 184 5.0 11.0 0.00 0.00 0.00 11 929.3
20190922002027 85 191 5.0 11.0 0.00 0.00 0.00 11 929.3
20190922001523 85 181 5.0 12.0 0.00 0.00 0.00 11 929.3
20190922001023 85 181 4.0 12.0 0.00 0.00 0.00 11 929.2
20190922000525 85 170 4.0 13.0 0.00 0.00 0.00 11 929.1
20190922000023 85 203 4.0 13.0 0.00 0.00 0.00 11 929.0
20190921235523 86 189 5.0 11.0 0.00 0.00 0.00 11 929.0
20190921234523 86 156 6.0 10.0 0.00 0.00 0.00 11 928.9
20190921234024 86 190 6.0 13.0 0.00 0.00 0.00 11 928.9
20190921233023 86 154 6.0 9.0 0.00 0.00 0.00 11 928.8
20190921231956 87 217 6.0 10.0 0.00 0.00 0.00 11 928.8
20190921231500 87 196 3.0 11.0 0.00 0.00 0.00 11 928.8
20190921230958 87 156 5.0 11.0 0.00 0.00 0.00 10 928.8
20190921230458 87 238 1.0 10.0 0.00 0.00 0.00 11 928.8
20190921225957 87 216 3.0 10.0 0.00 0.00 0.00 11 928.8
20190921225457 87 186 5.0 13.0 0.00 0.00 0.00 11 928.8
20190921224957 87 196 5.0 13.0 0.00 0.00 0.00 11 928.8
20190921224457 86 158 5.0 13.0 0.00 0.00 0.00 11 928.8
20190921223958 87 183 5.0 13.0 0.00 0.00 0.00 11 928.8
20190921223459 87 201 5.0 11.0 0.00 0.00 0.00 11 928.8
20190921222956 87 190 5.0 12.0 0.00 0.00 0.00 10 928.9
20190921222459 87 189 4.0 12.0 0.00 0.00 0.00 10 928.8
20190921221959 87 175 5.0 11.0 0.00 0.00 0.00 10 928.9
20190921221457 87 208 4.0 13.0 0.00 0.00 0.00 10 929.0
20190921220956 87 203 7.0 13.0 0.00 0.00 0.00 10 929.0
20190921220457 87 144 4.0 10.0 0.00 0.00 0.00 11 929.0
20190921215957 87 199 1.0 9.0 0.00 0.00 0.00 11 929.0
20190921215456 87 186 4.0 12.0 0.00 0.00 0.00 10 929.2
20190921214957 87 233 4.0 12.0 0.00 0.00 0.00 10 929.2
20190921214458 87 233 4.0 13.0 0.00 0.00 0.00 11 929.2
20190921213958 87 237 4.0 13.0 0.00 0.00 0.00 11 929.2
20190921213458 86 187 3.0 10.0 0.00 0.00 0.00 11 929.2
20190921212957 87 198 3.0 10.0 0.00 0.00 0.00 10 929.4
20190921212458 86 165 1.0 11.0 0.00 0.00 0.00 10 929.5
20190921211956 86 174 2.0 11.0 0.00 0.00 0.00 10 929.6